Home   Weather   43°53'N, 125°20'E   Past weeks
Flag for China

Past Weather in 43°53'N, 125°20'E, China — Yesterday and Last 2 Weeks

Now
19 °F

Passing clouds.


Feels Like: 11 °F
Forecast: 37 / 17 °F
Wind: 6 mph from West

Location: Changchun Airport

Current Time: Feb 22, 2020 at 7:14:59 pm

Latest Report: Feb 22, 2020 at 6:00 pm


Visibility: N/A

Pressure: 30.18 "Hg

Humidity: 79%

Dew Point: 14 °F

Location of 43°53'N, 125°20'ELocation

Past Weather in 43°53'N, 125°20'E — Graph

°F

43°53'N, 125°20'E Temperature Yesterday

Maximum temperature yesterday: 34 °F (at 10:00 am)
Minimum temperature yesterday: 28 °F (at 12:00 am)
Average temperature yesterday: 31 °F

High & Low Weather Summary for the Past Weeks

 TemperatureHumidityPressure
High46 °F (Feb 11, 2:00 pm)93% (Feb 12, 11:00 pm)30.51 "Hg (Feb 12, 11:00 pm)
Low-15 °F (Feb 8, 6:00 am)27% (Feb 20, 1:00 pm)29.83 "Hg (Feb 13, 3:00 am)
Average19 °F64%30.18 "Hg
* Reported Feb 7 6:00 pm — Feb 22 6:00 pm, 43°53'N, 125°20'E. Weather by CustomWeather, © 2020

Note: Actual official high and low records may vary slightly from our data, if they occured in-between our weather recording intervals... More about our weather records

43°53'N, 125°20'E Weather History for the Previous 24 Hours

Scroll right to see more
 ConditionsComfort  
Time TempWeatherWind HumidityBarometerVisibility
6:00 pm
Sat, Feb 22
19 °FPassing clouds.6 mph79%30.18 "HgN/A
5:00 pm21 °FLight snow. Partly sunny.8 mph80%30.15 "Hg4 mi
4:00 pm21 °FLight snow. Partly sunny.10 mph74%30.15 "Hg2 mi
3:00 pm21 °FLight snow. Partly sunny.8 mph80%30.12 "Hg2 mi
2:00 pm21 °FLight snow. Partly sunny.13 mph80%30.09 "Hg2 mi
1:00 pm23 °FLight snow. Partly sunny.10 mph80%30.07 "Hg1 mi
12:00 pm21 °FLight snow. Partly sunny.10 mph80%30.07 "Hg1 mi
11:00 am21 °FLight snow. Partly sunny.8 mph74%30.09 "Hg1 mi
10:00 am23 °FPartly sunny.10 mph58%30.07 "HgN/A
9:00 am23 °FPassing clouds.10 mph58%30.07 "HgN/A
8:00 am21 °FPassing clouds.8 mph58%30.07 "HgN/A
7:00 am19 °FPassing clouds.6 mph63%30.07 "HgN/A
6:00 am19 °FClear.6 mph68%30.04 "Hg10 mi
5:00 am23 °FPassing clouds.8 mph74%30.04 "HgN/A
4:00 am25 °FClear.8 mph80%30.04 "Hg4 mi
3:00 am25 °FClear.10 mph80%30.04 "Hg4 mi
2:00 am27 °FClear.8 mph74%30.04 "Hg4 mi
1:00 am28 °FOvercast.6 mph80%30.04 "Hg4 mi
12:00 am32 °FIce fog.6 mph80%30.04 "Hg3 mi
11:00 pm
Fri, Feb 21
32 °FIce fog.6 mph87%30.04 "Hg3 mi
10:00 pm30 °FIce fog.6 mph93%30.07 "Hg2 mi
9:00 pm30 °FIce fog.6 mph93%30.07 "Hg1 mi
8:00 pm32 °FIce fog.6 mph93%30.07 "Hg1 mi
7:00 pm32 °FIce fog.3 mph93%30.09 "Hg1 mi
Weather by CustomWeather, © 2020

See weather overview

Advertising